Погода в Трубине

Россия / Калужская область     54°58′55″N   36°41′53″E
темп.,
°C
ветер,
м/с
пор.,
м/с
влажн.,
%
обл.,
%
осадки,
мм/ч
давл.,
гПа
погр.,
м
15 апреля, чт
чт1500:00+11в116069 0.0 101610
03:00+10юв226368 0.0 101616
06:00+10св246596 0.0 101565
09:00+13в2456100 0.0 1016275
12:00+17всв3547100 0.0 1015664
15:00+19в4743100 0.0 10141456
18:00+17всв41052100 0.0 1014425
21:00+12ссв2381100 1.1 101572
16 апреля, пт
пт1600:00+10в2385100 0.2 101665
03:00+10в31088100 0.2 1017406
06:00+9всв41092100 0.0 1018481
09:00+11в588293 0.0 1019610
12:00+11всв41085100 0.8 1019625
15:00+15всв5867100 1.1 10191184
18:00+14всв51069100 0.5 10191064
21:00+12в5127971 1.8 1019888
17 апреля, сб
сб1700:00+10в389198 2.1 1021516
03:00+9всв41091100 2.3 1021499
06:00+7всв4119288 0.0 1022508
09:00+9всв5108481 0.0 1022569
12:00+13всв696476 0.0 10221022
15:00+16всв695340 0.0 10211409
18:00+14всв6125528 0.0 10201252
21:00+10всв5136288 0.0 1022772
18 апреля, вс
вс1800:00+8всв5126368 0.0 1022606
03:00+6св412668 0.0 1022502
06:00+6св51266100 0.0 1023611
09:00+7всв5116496 0.0 1023682
12:00+11всв594874 0.0 10231162
15:00+14всв684185 0.0 10232018
18:00+12всв484896 0.0 10231026
21:00+9всв395588 0.0 1024400
19 апреля, пн
пн1900:00+5св2577100 0.0 102589
03:00+4св288348 0.0 1026209
06:00+3св28855 0.0 1026233
09:00+8всв47665 0.0 1026698
12:00+12всв575097 0.1 10261903
15:00+11всв4657100 0.1 10261415
18:00+9всв4862100 0.0 1026664
21:00+8всв3966100 0.0 1026448